Regional Weather Roundup
Issued by NWS Charleston, SC

Current Version | Previous Version | Text Only | Print | Product List | Glossary Off
Versions: 1 2 3 4 5 6 7 8 9 10 11 12 13 14 15 16 17 18 19 20 21 22 23 24 25 26 27 28 29 30 31 32 33 34 35 36 37 38 39 40 41 42 43 44 45 46 47 48 49 50

000
ASUS42 KCHS 290327
RWRCHS

REGIONAL WEATHER ROUNDUP
NATIONAL WEATHER SERVICE CHARLESTON SC
1100 PM EDT FRI APR 28 2017

NOTE: "FAIR" INDICATES FEW OR NO CLOUDS BELOW 12,000 FEET WITH NO
SIGNIFICANT WEATHER AND/OR OBSTRUCTIONS TO VISIBILITY.

NOT ALL STATIONS ARE QUALITY CONTROLLED. USE DATA WITH CAUTION...
ESPECIALLY DEWPOINT OBSERVATIONS.

SCZ027-030-031-034>040-042>050-290400-
...SOUTHEAST SOUTH CAROLINA...

CITY           SKY/WX    TMP DP  RH WIND       PRES   REMARKS
N CHARLESTON   MOCLDY    76  73  91 S13       30.14S
WATERFRONT PRK   N/A     76  75  96 S8        30.13R
JOHNS ISLAND   FAIR      75  75 100 S12       30.15S
PINOPOLIS        N/A     75  73  94 S5        30.06R
MONCKS CORNER  CLOUDY    73  72  94 S6        30.14S
SUMMERVILLE    CLOUDY    73  72  94 S6        30.15R
BEAUFORT MCAS  PTCLDY    77  75  93 S8G17     30.14S
BEAUFORT ARPT  FAIR      75  72  88 S9G16     30.14S
HILTON HEAD IS CLEAR     75  75 100 S9        30.15S
WALTERBORO     PTCLDY    72  72 100 S5        30.15R
ALLENDALE      FAIR      77  72  83 S8        30.11S

...SOUTHERN MIDLANDS AND PEE DEE...

CITY           SKY/WX    TMP DP  RH WIND       PRES   REMARKS
GEORGETOWN     CLOUDY    75  73  94 S8        30.16S
KINGSTREE      FAIR      73  70  88 SE8       30.13S
ORANGEBURG     CLEAR     76  72  87 S7        30.12R
BARNWELL       FAIR      79  73  83 SE7       30.12R
AIKEN          FAIR      73  70  88 SE6       30.14R
MANNING        FAIR      73  70  88 S17G25    30.13R
COLUMBIA       CLEAR     80  71  74 S10       30.09R
SUMTER         CLEAR     76  72  85 S7        30.09R
FLORENCE       CLEAR     76  73  91 S10       30.12R
MYRTLE BEACH   NOT AVBL
N MYRTLE BEACH PTCLDY    74  74 100 S13       30.16R

$$

GAZ063-065-086>088-099>101-113>116-118-119-134>141-150-290400-
...SOUTHEAST GEORGIA...

CITY           SKY/WX    TMP DP  RH WIND       PRES   REMARKS
SAVANNAH ARPT  PTCLDY    77  72  84 S14       30.13R
HUNTER AAF     CLEAR     76  76 100 S6        30.11R
FORT STEWART   PTCLDY    76  70  83 SE6       30.10S
STATESBORO     PTCLDY    78  70  76 S8        30.12R
SYLVANIA       PTCLDY   N/A N/A N/A CALM      30.13R
CLAXTON        FAIR      77  76  94 E3        30.12R

...CSRA...CENTRAL AND FAR SOUTHEAST GEORGIA...

CITY           SKY/WX    TMP DP  RH WIND       PRES   REMARKS
THOMSON        CLOUDY    72  69  90 CALM      30.15R
AUGUSTA-BUSH   PTCLDY    79  72  79 SE7       30.08R
AUGUSTA-DANIEL CLEAR     81  69  67 SE6       30.10R
SWAINSBORO     FAIR      79  70  73 S8        30.11S
VIDALIA        CLEAR     81  70  69 SE6       30.11R
EASTMAN        FAIR      73  62  68 CALM      30.11S
HAZLEHURST     FAIR      81  73  76 S3        30.10R
ALMA           CLEAR     79  72  79 SE5       30.10R
WAYCROSS       CLEAR     81  73  78 SE7       30.10S
JESUP          FAIR      77  68  73 S3        30.12S
BAXLEY         FAIR      79  75  89 SE6       30.10S
BRUNSWICK      PTCLDY    77  73  88 SE14      30.13F
SAINT SIMONS   CLOUDY    76  72  87 SE12      30.13R

$$

SCZ027-028-034-036>038-045-046-048>050-GAZ119-141-290400-
...LAKE AND SUPPLEMENTAL COASTAL OBSERVATIONS...

STATION/POSITION TIME  TEMP    WIND        PRES    WAVE   SWELL
                       AIR SEA DIR/SP/G            HT/PER HT/PER/DIR
                 (UTC) (F)     (DEG/KT/KT) (MB)    (FT/S) (FT/S/D)
WINYAH BAY       0245   76     190/  9     1021.0R
LAKE MURRAY      0230   78     160/  9/ 10 1018.3R
ACE BASIN NERRS  0230   76     170/  2     1021.0R
FORT PULASKI     0300   75 75  190/  6/ 11 1020.9
SAPELO ISLAND    0245   76     160/  9     1020.0S

$$

ANZ835-935-AMZ111-154-330-350-352-354-370-450-454-472-290400-
...C-MAN AND BUOY OBSERVATIONS...

STATION/POSITION TIME  TEMP    WIND        PRES    WAVE   SWELL
                       AIR SEA DIR/SP/G            HT/PER HT/PER/DIR
                 (UTC) (F)     (DEG/KT/KT) (MB)    (FT/S) (FT/S/D)
BUOY 41004       0310   75 74  170/ 12/ 14 1021.0
BUOY 41008       0250   75 73  140/ 16/ 17 1019.6R   3/ 5   2/ 90/ 8
FOLLY BEACH CMAN 0300   76     170/ 15/ 17 1021.4R
CAPERS NEARSHORE 0308   75 75  180/ 12/ 16 1020.6R
FRIPP NEARSHORE  0308   74 72  170/ 12/ 16 1020.3R


STATION/POSITION TIME  TEMP    WIND        PRES    WAVE   SWELL
                       AIR SEA DIR/SP/G            HT/PER HT/PER/DIR
                 (UTC) (F)     (DEG/KT/KT) (MB)    (FT/S) (FT/S/D)
5E ST. MARYS GA  0300      74                N/A     3/ 4
FRYING PAN BUOY  0310   75 73  190/  8/ 10 1021.6
BUOY 41025       0250   77 76  200/ 16/ 19 1021.5    4/ 8   3/120/ 8
CAPE LOOKOUT NC  0300   73     190/  9/ 10 1021.3R
BUOY 41002       0250   75 76  140/ 12/ 14 1024.7R   3/ 8   3/ 80/ 8
BUOY 41010       0310   78 79  120/ 14/ 16 1021.9
ST AUGUSTINE FL  0300   76 78  140/ 15/ 18 1021.1R


$$



USA.gov is the U.S. government's official web portal to all federal, state and local government web resources and services.